Regional Weather Roundup
Issued by NWS Upton, NY

Current Version | Previous Version | Text Only | Print | Product List | Glossary Off
Versions: 1 2 3 4 5 6 7 8 9 10 11 12 13 14 15 16 17 18 19 20 21 22 23 24 25 26 27
000 ASUS41 KOKX 010904 RWROKX REGIONAL WEATHER ROUNDUP NATIONAL WEATHER SERVICE NEW YORK NY 500 AM EDT SUN MAY 01 2016 NOTE: "FAIR" INDICATES FEW OR NO CLOUDS BELOW 12,000 FEET WITH NO SIGNIFICANT WEATHER AND/OR OBSTRUCTIONS TO VISIBILITY. NYZ071-072-176-178-NJZ106-104-011000- NEW YORK CITY METRO AREA CITY SKY/WX TMP DP RH WIND PRES REMARKS CENTRAL PARK CLOUDY 50 34 54 CALM 30.22S LAGUARDIA APRT CLOUDY 50 35 56 SE5 30.19F KENNEDY INTL CLOUDY 49 38 65 E6 30.21F NEWARK/LIBERTY CLOUDY 51 39 63 SE3 30.19F BRNX BOT. GARD N/A 48 36 61 E1 30.20S TETERBORO LGT RAIN 50 35 56 SW3 30.19S $$ NYZ177-179-078>081-011000- LONG ISLAND NEW YORK CITY SKY/WX TMP DP RH WIND PRES REMARKS FARMINGDALE CLOUDY 48 39 71 SE3 30.20F ISLIP CLOUDY 47 38 71 E5 30.20F SHIRLEY CLOUDY 44 38 79 NE3 30.22S RIVERHEAD N/A 43 39 87 CALM 30.22S WESTHAMPTON CLOUDY 40 37 89 CALM 30.23S EAST HAMPTON FAIR 38 36 92 CALM 30.22S MONTAUK POINT N/A 42 38 85 CALM 30.24S $$ NYZ052-065-067-011000- HUDSON VALLEY CITY SKY/WX TMP DP RH WIND PRES REMARKS WHITE PLAINS CLOUDY 46 38 73 E3 30.19S NEWBURGH CLOUDY 48 39 71 CALM 30.20 MONTGOMERY CLOUDY 48 40 73 S3 30.18R POUGHKEEPSIE CLOUDY 50 37 61 CALM 30.19R ALBANY CLOUDY 51 35 54 S9 30.17R $$ NJZ001-105-106-008-010-013-015-019>022-104-011000- NEW JERSEY CITY SKY/WX TMP DP RH WIND PRES REMARKS NEWARK/LIBERTY CLOUDY 51 39 63 SE3 30.19F TETERBORO LGT RAIN 50 35 56 SW3 30.19S CALDWELL CLOUDY 49 40 71 CALM 30.19F MORRISTOWN CLOUDY 46 37 71 CALM 30.19S SOMERVILLE CLOUDY 47 41 80 CALM 30.18S SUSSEX LGT RAIN 47 39 74 CALM 30.19R ANDOVER N/A 47 34 60 CALM 30.18S TRENTON CLOUDY 47 40 76 CALM 30.19R MILLVILLE LGT RAIN 48 45 89 CALM 30.18R ATLANTIC CITY LGT RAIN 49 45 86 CALM 30.18S WRIGHTSTOWN LGT RAIN 45 43 93 CALM 30.17R TOMS RIVER CLOUDY 46 39 76 CALM 30.19S BELMAR CLOUDY 48 42 80 E3 30.20S $$ PAZ047>061-062-071-011000- EASTERN PENNSYLVANIA CITY SKY/WX TMP DP RH WIND PRES REMARKS PHILADELPHIA LGT RAIN 50 40 68 SE3 30.19S ALLENTOWN CLOUDY 50 36 58 SE5 30.18R SCRANTON LGT RAIN 47 41 80 E3 30.13F $$ CTZ002-004>006-009-010-012-RIZ004-006-007-MAZ004-011-015-011000- SOUTHERN NEW ENGLAND IN CT CITY SKY/WX TMP DP RH WIND PRES REMARKS BRADLEY INTL CLOUDY 45 36 70 SE6 30.21R HARTFORD CLOUDY 47 37 68 SE3 30.22S DANBURY CLOUDY 45 37 73 SE3 30.21S WTRBRY/OXFORD N/A 45 36 70 CALM 30.21S BRIDGEPORT CLOUDY 48 39 71 SE5 30.22R MERIDEN CLOUDY 46 36 68 CALM 30.22R NEW HAVEN CLOUDY 46 38 73 CALM 30.22S CHESTER FAIR 43 39 87 CALM 30.21S GROTON CLOUDY 44 43 96 CALM 30.23R WILLIMANTIC CLOUDY 43 36 76 CALM 30.23S IN RI CITY SKY/WX TMP DP RH WIND PRES REMARKS PROVIDENCE PTCLDY 41 37 86 CALM 30.23F BLOCK ISLAND CLOUDY 44 38 79 CALM 30.24R WESTERLY CLOUDY 42 36 79 CALM 30.24R IN MA CITY SKY/WX TMP DP RH WIND PRES REMARKS BOSTON CLOUDY 44 33 65 S5 30.24S WORCESTER CLOUDY 42 25 50 W12 30.19S WESTFIELD CLOUDY 44 34 67 CALM 30.20S PROVINCETOWN CLOUDY 35 32 88 CALM 30.25S NANTUCKET MOCLDY 40 35 83 NE6 30.24S $$ ANZ330-335-338-340-345-350-353-355-011000- COASTAL MARINE OBSERVATIONS STATION/POSITION TIME SKY/WX TEMP WIND PRES VSBY WAVE AIR SEA DIR/SP/G HT/PER (UTC) (F) (DEG/KT/KT) (MB) (MI) (FT/S) NY HARB ENTRANCE 0750 48 51 130/ 8/ 10 1022.1 4/ 9 20S FIRE ISLAND 0750 47 49 130/ 8/ 10 1022.4 4/ 8 GREAT SOUTH BAY 0800 48 57 110/ 4/ 8 N/A 23 SSW MONTAUK P 0850 46 47 120/ 4/ 6 1023.2 4/ 8 15 E BARNEGAT LI 0822 51 N/A 5/ 8 HUDSON CANYON 0750 48 48 1022.2 5/ 8 KINGS POINT 0800 49 54 1022.6 EXECUTION ROCKS NOT AVBL CENTRAL LI SOUND NOT AVBL EASTERN LI SOUND 0800 47 48 140/ 2/ 4 N/A ROBBINS REEF 0800 50 140/ 6/ 7 1021.9 $$ >>>>>>>>>>>>>>>>>>>>>>>>>>>> KEY <<<<<<<<<<<<<<<<<<<<<<<<<<< > < > SKY/WX - SKY CONDITION/PRESENT WEATHER < > TMP - TEMPERATURE IN FAHRENHEIT < > DP - DEWPOINT IN FAHRENHEIT < > RH - RELATIVE HUMIDITY IN PERCENT < > WIND - DIRECTION AND SPEED IN MPH < > PRES - MEAN SEA LEVEL PRESSURE IN INCHES OF HG < > WCI - WIND CHILL INDEX < > VSB - VISIBILITY IN MILES < > HX - HEAT INDEX < > TC - TEMPERATURE IN CELSIUS < > VRB - VARIABLE WIND DIRECTION < > < >>>>>>>>>>>>>>>>>>>>>>>>>>>> KEY <<<<<<<<<<<<<<<<<<<<<<<<<<<

USA.gov is the U.S. government's official web portal to all federal, state and local government web resources and services.